Arcata, CA (95518)

10:41 AM PDT on August 30, 2015 (GMT -0700)
Woodland Heights | | Change Station
CLOSE
Current Station
Personal Weather Station
Location: Arcata, CA
Elevation: 194 ft
Nearby Weather Stations

Elev 194 ft 40.89 °N, 124.07 °W | Updated 7 minutes ago

Overcast
Overcast
63.7 °F
Feels Like 63.7 °F
N
0.0
Wind Variable Wind from North
Gusts 0.0 mph

Today
High -- | Low -- °F
--% Chance of Precip.
Yesterday
High -- | Low -- °F
Precip. -- in
6:41 AM 7:52 PM
Full, 99% visible
Pressure 30.08 in
Visibility 5.0 miles
Clouds Scattered Clouds 3000 ft
Mostly Cloudy 3800 ft
Overcast 6000 ft
Dew Point 62 °F
Humidity 95%
Rainfall 0.00 in
Snow Depth Not available.
UV 1 out of 12
Pollen 5.50 out of 12
Air Quality Not available.
Flu Activity Not available.
SPECI KACV 301702Z AUTO 20003KT 5SM HZ SCT030 BKN038 OVC060 18/16 A3008 RMK AO2 RAE1654 P0000 T01830156
Pressure 30.08 in
Visibility 5.0 miles
Clouds Scattered Clouds 3000 ft
Mostly Cloudy 3800 ft
Overcast 6000 ft
Dew Point 62 °F
Humidity 95%
Rainfall 0.00 in
Snow Depth Not available.
UV 1 out of 12
Pollen 5.50 out of 12
Air Quality Not available.
Flu Activity Not available.
SPECI KACV 301702Z AUTO 20003KT 5SM HZ SCT030 BKN038 OVC060 18/16 A3008 RMK AO2 RAE1654 P0000 T01830156

10-Day Weather Forecast

×

Almanac

Astronomy

Aug. 30, 2015 Rise Set
Actual Time
Civil Twilight
Nautical Twilight
Astronomical Twilight
Moon
Length of Visible Light
Length of Day
Tomorrow will be .
, % of the Moon is Illuminated

Today's Extremes

State Highs State Lows

Community

WunderPhotos

Upload Photos

1,851,014 photos uploaded!

WunderBlogs® & News

Nearby

Air Quality

  Air Quality AQ Index Pollutant
Not available.

Snow Depth

Station Depth Elevation

Earthquake Activity

City Distance Mag. Time & Date
Minimum magnitude displayed is 2.5.

Coastal Water Temperatures

Place Temperature

Stations

Nearby Weather Stations

Station Location Temp. Windchill Dew Point Humidity Wind Precip. Elev Updated Type